TAM3893 SBPA-SBGL

Flight info

Callsign TAM3893
Flight time 1h 32m
Altitude 37000
Route UBNUT UN857 AKNUB
Aircraft A320/M-SDE3FGHIRWY/LB1

Departure

Time 2026-04-29 00:00
Airport Porto Alegre-Salgado Filho International Airport (SBPA)

Arrival

Time 2026-04-29 01:32
Airport Rio Galeão – Tom Jobim International Airport (SBGL)
Time Latitude Longitude Altitude Speed Heading
2026-04-28 23:31 -29.99105 -51.17402 17 ft 0 kts 360°
2026-04-28 23:45 -29.99111 -51.17402 16 ft 4 kts
2026-04-28 23:46 -29.99138 -51.17406 18 ft 4 kts 21°
2026-04-28 23:46 -29.99160 -51.17422 19 ft 4 kts 49°
2026-04-28 23:46 -29.99173 -51.17447 18 ft 4 kts 84°
2026-04-28 23:46 -29.99173 -51.17456 18 ft 0 kts 91°
2026-04-28 23:48 -29.99173 -51.17455 18 ft 0 kts 91°
2026-04-28 23:48 -29.99183 -51.17404 16 ft 8 kts 134°
2026-04-28 23:48 -29.99244 -51.17390 16 ft 10 kts 162°
2026-04-28 23:49 -29.99268 -51.17328 16 ft 10 kts 96°
2026-04-28 23:49 -29.99272 -51.17201 15 ft 17 kts 90°
2026-04-28 23:49 -29.99273 -51.17065 15 ft 17 kts 94°
2026-04-28 23:49 -29.99277 -51.16937 16 ft 16 kts 91°
2026-04-28 23:50 -29.99280 -51.16816 15 ft 14 kts 91°
2026-04-28 23:50 -29.99282 -51.16709 15 ft 13 kts 90°
2026-04-28 23:50 -29.99282 -51.16616 16 ft 11 kts 90°
2026-04-28 23:50 -29.99283 -51.16534 16 ft 9 kts 90°
2026-04-28 23:51 -29.99285 -51.16466 16 ft 8 kts 92°
2026-04-28 23:51 -29.99287 -51.16407 16 ft 7 kts 92°
2026-04-28 23:51 -29.99289 -51.16357 16 ft 6 kts 92°
2026-04-28 23:51 -29.99290 -51.16314 16 ft 5 kts 92°
2026-04-28 23:52 -29.99294 -51.16279 16 ft 4 kts 105°
2026-04-28 23:52 -29.99305 -51.16253 18 ft 3 kts 122°
2026-04-28 23:52 -29.99332 -51.16235 16 ft 8 kts 169°
2026-04-28 23:52 -29.99366 -51.16234 17 ft 0 kts 179°
2026-04-28 23:57 -29.99392 -51.16234 20 ft 7 kts 179°
2026-04-28 23:57 -29.99460 -51.16220 19 ft 15 kts 144°
2026-04-28 23:57 -29.99482 -51.16114 19 ft 13 kts 91°
2026-04-28 23:57 -29.99485 -51.16008 18 ft 15 kts 91°
2026-04-28 23:58 -29.99489 -51.15832 18 ft 25 kts 91°
2026-04-28 23:58 -29.99493 -51.15628 17 ft 27 kts 91°
2026-04-28 23:58 -29.99497 -51.15400 14 ft 29 kts 91°
2026-04-28 23:58 -29.99495 -51.15201 15 ft 16 kts 85°
2026-04-28 23:59 -29.99454 -51.15089 14 ft 15 kts 67°
2026-04-28 23:59 -29.99480 -51.15006 13 ft 12 kts 174°
2026-04-28 23:59 -29.99504 -51.15077 14 ft 13 kts 274°
2026-04-28 23:59 -29.99496 -51.15422 14 ft 80 kts 271°
2026-04-29 00:00 -29.99478 -51.16303 18 ft 138 kts 271°
2026-04-29 00:00 -29.99460 -51.17586 158 ft 172 kts 271°
2026-04-29 00:00 -29.99436 -51.18947 844 ft 171 kts 271°
2026-04-29 00:00 -29.99407 -51.20332 1542 ft 177 kts 272°
2026-04-29 00:01 -29.99373 -51.21828 1914 ft 199 kts 272°
2026-04-29 00:01 -29.99335 -51.23508 2509 ft 212 kts 272°
2026-04-29 00:01 -29.99297 -51.25210 3421 ft 212 kts 272°
2026-04-29 00:01 -29.99135 -51.26899 4304 ft 213 kts 292°
2026-04-29 00:02 -29.98174 -51.28172 5013 ft 226 kts 329°
2026-04-29 00:02 -29.97146 -51.28568 5275 ft 246 kts 348°
2026-04-29 00:02 -29.94738 -51.28619 6055 ft 270 kts
2026-04-29 00:02 -29.92837 -51.28417 6915 ft 276 kts
2026-04-29 00:03 -29.91564 -51.28265 7468 ft 279 kts
2026-04-29 00:03 -29.89612 -51.28054 8326 ft 283 kts
2026-04-29 00:03 -29.87629 -51.27882 9182 ft 287 kts
2026-04-29 00:03 -29.85632 -51.27748 10025 ft 291 kts 359°
2026-04-29 00:04 -29.83541 -51.27642 10473 ft 310 kts 358°
2026-04-29 00:04 -29.81325 -51.27553 10783 ft 331 kts 358°
2026-04-29 00:04 -29.78978 -51.27467 11417 ft 339 kts 358°
2026-04-29 00:04 -29.76594 -51.27377 12177 ft 343 kts 357°
2026-04-29 00:05 -29.74222 -51.27287 12964 ft 346 kts 356°
2026-04-29 00:05 -29.71792 -51.27193 13733 ft 349 kts 356°
2026-04-29 00:05 -29.69375 -51.26989 14400 ft 357 kts
2026-04-29 00:05 -29.66944 -51.26226 15061 ft 365 kts 13°
2026-04-29 00:06 -29.64520 -51.25296 15743 ft 368 kts 12°
2026-04-29 00:06 -29.62080 -51.24362 16418 ft 370 kts 12°
2026-04-29 00:06 -29.59643 -51.23431 17073 ft 373 kts 12°
2026-04-29 00:06 -29.57153 -51.22483 17732 ft 376 kts 12°
2026-04-29 00:07 -29.54707 -51.21369 18360 ft 387 kts 21°
2026-04-29 00:07 -29.52458 -51.19555 18914 ft 401 kts 37°
2026-04-29 00:07 -29.50646 -51.17087 19444 ft 415 kts 52°
2026-04-29 00:07 -29.49407 -51.14056 19966 ft 429 kts 68°
2026-04-29 00:08 -29.48531 -51.10752 20489 ft 433 kts 68°
2026-04-29 00:08 -29.47661 -51.07451 20997 ft 437 kts 68°
2026-04-29 00:08 -29.46768 -51.04078 21485 ft 441 kts 67°
2026-04-29 00:08 -29.45867 -51.00692 22006 ft 445 kts 67°
2026-04-29 00:09 -29.44950 -50.97270 22488 ft 449 kts 66°
2026-04-29 00:09 -29.44029 -50.93856 22949 ft 453 kts 66°
2026-04-29 00:09 -29.43090 -50.90378 23421 ft 457 kts 66°
2026-04-29 00:09 -29.42156 -50.86908 23818 ft 461 kts 66°
2026-04-29 00:10 -29.41202 -50.83356 24190 ft 464 kts 66°
2026-04-29 00:10 -29.40247 -50.79795 24530 ft 468 kts 65°
2026-04-29 00:10 -29.39297 -50.76260 24882 ft 470 kts 65°
2026-04-29 00:10 -29.38327 -50.72652 25233 ft 473 kts 65°
2026-04-29 00:11 -29.37348 -50.69018 25602 ft 477 kts 65°
2026-04-29 00:11 -29.36374 -50.65411 25956 ft 480 kts 65°
2026-04-29 00:11 -29.34372 -50.58034 26660 ft 486 kts 64°
2026-04-29 00:12 -29.33359 -50.54302 26993 ft 490 kts 64°
2026-04-29 00:12 -29.32353 -50.50592 27346 ft 493 kts 64°
2026-04-29 00:12 -29.31325 -50.46818 27691 ft 495 kts 64°
2026-04-29 00:12 -29.30298 -50.43064 28034 ft 497 kts 63°
2026-04-29 00:13 -29.28979 -50.39418 28350 ft 487 kts 52°
2026-04-29 00:13 -29.27247 -50.36180 28686 ft 476 kts 42°
2026-04-29 00:13 -29.25124 -50.33323 29025 ft 464 kts 33°
2026-04-29 00:13 -29.22713 -50.30920 29373 ft 452 kts 24°
2026-04-29 00:14 -29.20202 -50.28788 29665 ft 453 kts 24°
2026-04-29 00:14 -29.17650 -50.26621 30010 ft 456 kts 24°
2026-04-29 00:14 -29.15098 -50.24449 30312 ft 458 kts 24°
2026-04-29 00:14 -29.12563 -50.22287 30574 ft 460 kts 24°
2026-04-29 00:15 -29.09977 -50.20081 30835 ft 462 kts 24°
2026-04-29 00:15 -29.07383 -50.17869 31068 ft 464 kts 24°
2026-04-29 00:15 -29.04807 -50.15675 31323 ft 466 kts 24°
2026-04-29 00:15 -29.02190 -50.13449 31583 ft 468 kts 24°
2026-04-29 00:16 -28.99598 -50.11243 31937 ft 467 kts 24°
2026-04-29 00:16 -28.96979 -50.09015 32301 ft 466 kts 24°
2026-04-29 00:16 -28.94386 -50.06813 32646 ft 466 kts 24°
2026-04-29 00:16 -28.91774 -50.04599 32986 ft 466 kts 23°
2026-04-29 00:17 -28.89195 -50.02413 33303 ft 466 kts 23°
2026-04-29 00:17 -28.86592 -50.00207 33599 ft 466 kts 24°
2026-04-29 00:17 -28.83980 -49.97994 33955 ft 465 kts 23°
2026-04-29 00:17 -28.81406 -49.95813 34257 ft 465 kts 24°
2026-04-29 00:18 -28.78788 -49.93596 34576 ft 465 kts 23°
2026-04-29 00:18 -28.76206 -49.91411 34788 ft 466 kts 23°
2026-04-29 00:18 -28.73584 -49.89195 35009 ft 467 kts 23°
2026-04-29 00:18 -28.71007 -49.86886 35293 ft 478 kts 30°
2026-04-29 00:19 -28.68746 -49.84072 35532 ft 497 kts 41°
2026-04-29 00:19 -28.66862 -49.80653 35753 ft 512 kts 49°
2026-04-29 00:19 -28.65113 -49.77137 35979 ft 513 kts 49°
2026-04-29 00:19 -28.63344 -49.73592 36166 ft 514 kts 49°
2026-04-29 00:20 -28.61568 -49.70049 36383 ft 514 kts 49°
2026-04-29 00:20 -28.59789 -49.66504 36581 ft 515 kts 49°
2026-04-29 00:20 -28.58025 -49.63002 36782 ft 515 kts 49°
2026-04-29 00:20 -28.56238 -49.59467 36951 ft 515 kts 49°
2026-04-29 00:21 -28.54431 -49.55906 37107 ft 516 kts 49°
2026-04-29 00:21 -28.50863 -49.48863 37140 ft 516 kts 49°
2026-04-29 00:22 -28.47275 -49.41771 37137 ft 515 kts 49°
2026-04-29 00:22 -28.43702 -49.34712 37136 ft 515 kts 49°
2026-04-29 00:23 -28.40138 -49.27684 37138 ft 515 kts 49°
2026-04-29 00:23 -28.36555 -49.20660 37119 ft 515 kts 49°
2026-04-29 00:24 -28.32972 -49.13625 37131 ft 515 kts 49°
2026-04-29 00:24 -28.29377 -49.06563 37120 ft 514 kts 49°
2026-04-29 00:24 -28.27477 -49.03218 37122 ft 501 kts 40°
2026-04-29 00:25 -28.25232 -49.00249 37126 ft 491 kts 35°
2026-04-29 00:25 -28.20652 -48.94535 37125 ft 491 kts 35°
2026-04-29 00:26 -28.16038 -48.88758 37127 ft 492 kts 35°
2026-04-29 00:26 -28.11456 -48.83020 37123 ft 491 kts 35°
2026-04-29 00:27 -28.06892 -48.77308 37132 ft 491 kts 35°
2026-04-29 00:27 -28.02280 -48.71553 37132 ft 491 kts 35°
2026-04-29 00:28 -27.97702 -48.65848 37134 ft 492 kts 35°
2026-04-29 00:28 -27.93116 -48.60124 37105 ft 491 kts 35°
2026-04-29 00:29 -27.88536 -48.54425 37114 ft 491 kts 36°
2026-04-29 00:29 -27.83948 -48.48734 37121 ft 490 kts 36°
2026-04-29 00:30 -27.79342 -48.43033 37101 ft 490 kts 36°
2026-04-29 00:30 -27.74770 -48.37375 37105 ft 489 kts 36°
2026-04-29 00:31 -27.70159 -48.31678 37115 ft 489 kts 36°
2026-04-29 00:31 -27.65575 -48.26020 37117 ft 489 kts 36°
2026-04-29 00:32 -27.60996 -48.20376 37104 ft 489 kts 36°
2026-04-29 00:32 -27.56418 -48.14733 37112 ft 489 kts 36°
2026-04-29 00:33 -27.51817 -48.09068 37115 ft 489 kts 36°
2026-04-29 00:33 -27.47229 -48.03443 37106 ft 488 kts 36°
2026-04-29 00:34 -27.42630 -47.97809 37097 ft 488 kts 36°
2026-04-29 00:34 -27.38032 -47.92181 37119 ft 488 kts 36°
2026-04-29 00:35 -27.33435 -47.86590 37126 ft 487 kts 36°
2026-04-29 00:35 -27.28820 -47.81005 37129 ft 487 kts 36°
2026-04-29 00:36 -27.24216 -47.75431 37118 ft 487 kts 36°
2026-04-29 00:36 -27.19619 -47.69888 37123 ft 486 kts 36°
2026-04-29 00:37 -27.14983 -47.64304 37127 ft 487 kts 36°
2026-04-29 00:37 -27.10389 -47.58754 37072 ft 486 kts 36°
2026-04-29 00:38 -27.05792 -47.53212 37124 ft 486 kts 37°
2026-04-29 00:38 -27.01165 -47.47651 37133 ft 485 kts 37°
2026-04-29 00:39 -26.96571 -47.42139 37133 ft 485 kts 37°
2026-04-29 00:39 -26.91950 -47.36596 37124 ft 485 kts 37°
2026-04-29 00:40 -26.87348 -47.31090 37132 ft 484 kts 37°
2026-04-29 00:40 -26.82748 -47.25598 37128 ft 484 kts 37°
2026-04-29 00:41 -26.78147 -47.20104 37132 ft 484 kts 37°
2026-04-29 00:41 -26.73523 -47.14583 37113 ft 484 kts 37°
2026-04-29 00:42 -26.68926 -47.09108 37098 ft 484 kts 37°
2026-04-29 00:42 -26.64294 -47.03622 37115 ft 483 kts 37°
2026-04-29 00:43 -26.59672 -46.98159 37121 ft 483 kts 37°
2026-04-29 00:43 -26.55046 -46.92717 37117 ft 483 kts 37°
2026-04-29 00:44 -26.50430 -46.87301 37127 ft 483 kts 37°
2026-04-29 00:44 -26.45796 -46.81856 37125 ft 483 kts 37°
2026-04-29 00:45 -26.41189 -46.76454 37129 ft 483 kts 37°
2026-04-29 00:45 -26.36537 -46.71003 37127 ft 483 kts 37°
2026-04-29 00:46 -26.31906 -46.65583 37128 ft 483 kts 37°
2026-04-29 00:46 -26.27289 -46.60195 37111 ft 482 kts 37°
2026-04-29 00:47 -26.22655 -46.54790 37102 ft 482 kts 37°
2026-04-29 00:47 -26.18041 -46.49409 37115 ft 482 kts 37°
2026-04-29 00:48 -26.13389 -46.43997 37112 ft 481 kts 37°
2026-04-29 00:48 -26.08764 -46.38620 37116 ft 481 kts 37°
2026-04-29 00:49 -26.04923 -46.34167 37104 ft 481 kts 37°
2026-04-29 00:49 -26.00267 -46.28760 37116 ft 481 kts 37°
2026-04-29 00:50 -25.95651 -46.23408 37113 ft 481 kts 37°
2026-04-29 00:50 -25.91016 -46.18054 37116 ft 481 kts 37°
2026-04-29 00:51 -25.86385 -46.12714 37110 ft 481 kts 37°
2026-04-29 00:51 -25.81720 -46.07333 37115 ft 481 kts 37°
2026-04-29 00:52 -25.77097 -46.01992 37119 ft 481 kts 37°
2026-04-29 00:52 -25.72447 -45.96634 37108 ft 481 kts 37°
2026-04-29 00:53 -25.67820 -45.91308 37116 ft 481 kts 37°
2026-04-29 00:53 -25.63189 -45.85994 37115 ft 480 kts 37°
2026-04-29 00:54 -25.58526 -45.80656 37114 ft 481 kts 37°
2026-04-29 00:54 -25.53882 -45.75340 37100 ft 480 kts 37°
2026-04-29 00:55 -25.49245 -45.70045 37097 ft 480 kts 38°
2026-04-29 00:55 -25.44594 -45.64718 37105 ft 479 kts 38°
2026-04-29 00:56 -25.39976 -45.59437 37112 ft 478 kts 38°
2026-04-29 00:56 -25.35341 -45.54161 37105 ft 478 kts 38°
2026-04-29 00:57 -25.30721 -45.48905 37109 ft 477 kts 38°
2026-04-29 00:57 -25.26091 -45.43641 37111 ft 476 kts 38°
2026-04-29 00:58 -25.21488 -45.38409 37094 ft 476 kts 38°
2026-04-29 00:58 -25.16856 -45.33145 37096 ft 476 kts 38°
2026-04-29 00:59 -25.12248 -45.27925 37088 ft 475 kts 38°
2026-04-29 00:59 -25.07640 -45.22711 37089 ft 475 kts 38°
2026-04-29 01:00 -25.03026 -45.17501 37079 ft 475 kts 39°
2026-04-29 01:00 -24.98411 -45.12286 37091 ft 475 kts 39°
2026-04-29 01:01 -24.93802 -45.07084 37099 ft 475 kts 39°
2026-04-29 01:01 -24.89179 -45.01878 37097 ft 474 kts 39°
2026-04-29 01:02 -24.84574 -44.96693 37096 ft 474 kts 39°
2026-04-29 01:02 -24.79970 -44.91514 37080 ft 474 kts 39°
2026-04-29 01:03 -24.75339 -44.86317 37094 ft 473 kts 39°
2026-04-29 01:03 -24.70732 -44.81144 37098 ft 473 kts 39°
2026-04-29 01:04 -24.66140 -44.75991 37089 ft 472 kts 39°
2026-04-29 01:04 -24.61550 -44.70849 37094 ft 472 kts 39°
2026-04-29 01:05 -24.56949 -44.65709 37097 ft 472 kts 39°
2026-04-29 01:05 -24.52341 -44.60572 37099 ft 472 kts 39°
2026-04-29 01:06 -24.47333 -44.56135 37089 ft 457 kts 22°
2026-04-29 01:06 -24.41724 -44.52993 37087 ft 454 kts 20°
2026-04-29 01:07 -24.36087 -44.49849 37089 ft 455 kts 20°
2026-04-29 01:07 -24.30463 -44.46691 37065 ft 455 kts 21°
2026-04-29 01:08 -24.24796 -44.43514 37061 ft 456 kts 21°
2026-04-29 01:08 -24.19164 -44.40371 37071 ft 457 kts 21°
2026-04-29 01:09 -24.13486 -44.37208 37078 ft 457 kts 21°
2026-04-29 01:09 -24.07809 -44.34048 37069 ft 458 kts 21°
2026-04-29 01:10 -24.02102 -44.30867 37067 ft 458 kts 21°
2026-04-29 01:10 -23.96431 -44.27716 37069 ft 458 kts 21°
2026-04-29 01:11 -23.91003 -44.24010 37051 ft 470 kts 39°
2026-04-29 01:11 -23.88866 -44.21333 37057 ft 477 kts 52°
2026-04-29 01:11 -23.87240 -44.18119 37058 ft 482 kts 61°
2026-04-29 01:12 -23.84338 -44.11524 36977 ft 484 kts 60°
2026-04-29 01:12 -23.82645 -44.08336 35868 ft 482 kts 47°
2026-04-29 01:12 -23.80267 -44.05788 34441 ft 476 kts 29°
2026-04-29 01:12 -23.77410 -44.04136 33179 ft 464 kts 14°
2026-04-29 01:13 -23.74322 -44.03317 32021 ft 450 kts
2026-04-29 01:13 -23.71217 -44.03069 30980 ft 442 kts 358°
2026-04-29 01:13 -23.68228 -44.02858 30452 ft 425 kts 358°
2026-04-29 01:13 -23.65292 -44.02654 29371 ft 420 kts 357°
2026-04-29 01:14 -23.62363 -44.02469 28123 ft 419 kts 357°
2026-04-29 01:14 -23.59498 -44.02297 27092 ft 414 kts 358°
2026-04-29 01:14 -23.56616 -44.02125 26112 ft 407 kts 358°
2026-04-29 01:14 -23.53835 -44.01954 25189 ft 401 kts 358°
2026-04-29 01:15 -23.51039 -44.01776 24273 ft 395 kts 359°
2026-04-29 01:15 -23.48343 -44.01603 23358 ft 389 kts 359°
2026-04-29 01:15 -23.45653 -44.01431 22353 ft 383 kts 359°
2026-04-29 01:15 -23.43008 -44.01262 21402 ft 378 kts 359°
2026-04-29 01:16 -23.40389 -44.01095 20498 ft 373 kts 359°
2026-04-29 01:16 -23.37840 -44.00933 19630 ft 368 kts 360°
2026-04-29 01:16 -23.35318 -44.00772 19242 ft 352 kts 360°
2026-04-29 01:16 -23.32908 -44.00617 18926 ft 345 kts 360°
2026-04-29 01:17 -23.30505 -44.00465 18597 ft 343 kts 360°
2026-04-29 01:17 -23.28143 -44.00315 18255 ft 341 kts 360°
2026-04-29 01:17 -23.25774 -44.00165 17901 ft 338 kts
2026-04-29 01:17 -23.23455 -44.00019 17585 ft 337 kts
2026-04-29 01:18 -23.21113 -43.99871 17257 ft 335 kts
2026-04-29 01:18 -23.16467 -43.99577 16603 ft 333 kts
2026-04-29 01:18 -23.14156 -43.99432 16288 ft 331 kts
2026-04-29 01:19 -23.11882 -43.99289 15970 ft 330 kts
2026-04-29 01:19 -23.09581 -43.99149 15645 ft 329 kts
2026-04-29 01:19 -23.07314 -43.99008 15333 ft 328 kts
2026-04-29 01:19 -23.05034 -43.98864 15011 ft 326 kts
2026-04-29 01:20 -23.02769 -43.98721 14699 ft 325 kts
2026-04-29 01:20 -23.00532 -43.98581 14377 ft 324 kts
2026-04-29 01:20 -22.98274 -43.98442 14071 ft 323 kts
2026-04-29 01:20 -22.96038 -43.98197 13744 ft 323 kts 11°
2026-04-29 01:21 -22.93958 -43.97324 13418 ft 324 kts 28°
2026-04-29 01:21 -22.92183 -43.95792 13098 ft 326 kts 46°
2026-04-29 01:21 -22.90911 -43.93764 12786 ft 328 kts 62°
2026-04-29 01:21 -22.89918 -43.91530 12461 ft 327 kts 63°
2026-04-29 01:22 -22.88946 -43.89335 12140 ft 325 kts 63°
2026-04-29 01:22 -22.87964 -43.87119 11814 ft 323 kts 63°
2026-04-29 01:22 -22.86997 -43.84946 11507 ft 321 kts 63°
2026-04-29 01:22 -22.86028 -43.82771 11192 ft 319 kts 63°
2026-04-29 01:23 -22.85067 -43.80597 10885 ft 318 kts 63°
2026-04-29 01:23 -22.84114 -43.78454 10461 ft 319 kts 63°
2026-04-29 01:23 -22.83158 -43.76322 10163 ft 305 kts 63°
2026-04-29 01:23 -22.82235 -43.74274 9665 ft 297 kts 63°
2026-04-29 01:24 -22.81351 -43.72296 9374 ft 295 kts 65°
2026-04-29 01:24 -22.80728 -43.70166 9005 ft 295 kts 75°
2026-04-29 01:24 -22.80230 -43.68010 8621 ft 293 kts 75°
2026-04-29 01:24 -22.79742 -43.65899 8242 ft 291 kts 75°
2026-04-29 01:25 -22.79252 -43.63785 7866 ft 284 kts 74°
2026-04-29 01:25 -22.78780 -43.61755 7506 ft 271 kts 74°
2026-04-29 01:25 -22.78328 -43.59812 7149 ft 260 kts 74°
2026-04-29 01:25 -22.77893 -43.57947 6813 ft 249 kts 74°
2026-04-29 01:26 -22.77473 -43.56175 6563 ft 237 kts 71°
2026-04-29 01:26 -22.76877 -43.54517 6212 ft 238 kts 65°
2026-04-29 01:26 -22.76226 -43.52873 5817 ft 240 kts 65°
2026-04-29 01:26 -22.75563 -43.51214 5465 ft 240 kts 65°
2026-04-29 01:27 -22.74895 -43.49546 5104 ft 240 kts 65°
2026-04-29 01:27 -22.74232 -43.47883 4745 ft 240 kts 65°
2026-04-29 01:27 -22.73577 -43.46232 4401 ft 239 kts 65°
2026-04-29 01:27 -22.72920 -43.44575 4072 ft 238 kts 66°
2026-04-29 01:28 -22.72273 -43.42934 3726 ft 237 kts 68°
2026-04-29 01:28 -22.71989 -43.41216 3393 ft 229 kts 95°
2026-04-29 01:28 -22.72471 -43.39614 3075 ft 222 kts 122°
2026-04-29 01:28 -22.73348 -43.38289 2772 ft 215 kts 125°
2026-04-29 01:29 -22.74215 -43.36991 2425 ft 209 kts 124°
2026-04-29 01:29 -22.75035 -43.35758 2162 ft 190 kts 124°
2026-04-29 01:29 -22.75758 -43.34669 1923 ft 170 kts 124°
2026-04-29 01:29 -22.76412 -43.33683 1662 ft 153 kts 124°
2026-04-29 01:30 -22.77012 -43.32771 1430 ft 143 kts 124°
2026-04-29 01:30 -22.77572 -43.31913 1254 ft 139 kts 125°
2026-04-29 01:30 -22.78135 -43.31058 1084 ft 138 kts 125°
2026-04-29 01:30 -22.78697 -43.30207 896 ft 138 kts 126°
2026-04-29 01:31 -22.79247 -43.29367 705 ft 137 kts 126°
2026-04-29 01:31 -22.79807 -43.28528 549 ft 137 kts 126°
2026-04-29 01:31 -22.80363 -43.27694 370 ft 137 kts 126°
2026-04-29 01:31 -22.80925 -43.26855 203 ft 136 kts 126°
2026-04-29 01:32 -22.81474 -43.26020 36 ft 133 kts 125°
2026-04-29 01:32 -22.81938 -43.25322 27 ft 81 kts 126°
2026-04-29 01:32 -22.82117 -43.25053 24 ft 27 kts 127°
2026-04-29 01:32 -22.82228 -43.24884 23 ft 28 kts 124°
2026-04-29 01:33 -22.82326 -43.24709 21 ft 19 kts 111°
2026-04-29 01:33 -22.82360 -43.24561 19 ft 18 kts 97°
2026-04-29 01:33 -22.82365 -43.24463 19 ft 5 kts 78°
2026-04-29 01:33 -22.82342 -43.24443 19 ft 4 kts 12°
2026-04-29 01:34 -22.82326 -43.24455 18 ft 2 kts 308°
2026-04-29 01:34 -22.82320 -43.24463 19 ft 1 kts 307°
2026-04-29 01:34 -22.82318 -43.24466 19 ft 3 kts 306°
2026-04-29 01:34 -22.82243 -43.24585 21 ft 18 kts 305°
2026-04-29 01:35 -22.82168 -43.24696 19 ft 16 kts 306°
2026-04-29 01:35 -22.82082 -43.24712 22 ft 14 kts 38°
2026-04-29 01:35 -22.82033 -43.24672 22 ft 13 kts 36°
2026-04-29 01:35 -22.81957 -43.24648 23 ft 11 kts
2026-04-29 01:36 -22.81892 -43.24614 21 ft 10 kts 33°
2026-04-29 01:36 -22.81840 -43.24575 21 ft 8 kts 36°
2026-04-29 01:36 -22.81791 -43.24554 22 ft 7 kts
2026-04-29 01:36 -22.81725 -43.24593 22 ft 12 kts 320°
2026-04-29 01:37 -22.81678 -43.24657 22 ft 10 kts 305°
2026-04-29 01:37 -22.81638 -43.24710 22 ft 6 kts 339°
2026-04-29 01:37 -22.81599 -43.24694 22 ft 6 kts 26°
2026-04-29 01:37 -22.81592 -43.24690 22 ft 0 kts 25°